Tracking 29528 objects as of 12-Sep-2024
HD Live streaming from Space Station
objects crossing your sky now

ONEWEB-0542

Track ONEWEB-0542 now!
10-day predictions
ONEWEB-0542 is classified as:


NORAD ID: 54646
Int'l Code: 2022-166E
Perigee: 1,183.7 km
Apogee: 1,186.0 km
Inclination: 87.9 °
Period: 108.9 minutes
Semi major axis: 7555 km
RCS: Unknown
Launch date: December 8, 2022
Source: United Kingdom (UK)
Launch site: AIR FORCE EASTERN TEST RANGE (AFETR)
Your satellite tracking list
Your tracking list is empty




NASA's NSSDC Master Catalog

Two Line Element Set (TLE):
1 54646U 22166E   24255.87966409  .00000026  00000-0  32530-4 0  9994
2 54646  87.9361  12.0738 0001521  86.1988 273.9320 13.21826014 86559
Source of the keplerian elements: AFSPC